星链-11278 (STARLINK-11278)

导读

STARLINK-11278是美国SpaceX星链星座的卫星,于2024年9月5日发射。星链计划旨在搭建全球卫星互联网,为全球提供高速低延迟网络服务。该卫星发射后进入预定轨道,作为星链星座的一员,进一步扩充了星座卫星规模,助力提升星座网络覆盖范围与服务能力,推动太空互联网基础设施建设。

Basic Information
目录编号:
60990
目录名称:
STARLINK-11278
国际标识:
2024-158A
轨道中心:
EARTH
卫星名称:
星链-11278
卫星全名:
星链-11278 (STARLINK-11278)
卫星状态:
已陨落 最后检测时间 2024-09-12
发射日期:
2024-09-05 UTC
国别 :
美国 (US)
星等 :
--
Orbit Information
数据来源 国际轨道数据
星历时间: 2024-09-13T14:16:04+0800
轨道信息已过期639天
半长轴: 6511.532km
偏心率: 0.0005192
轨道倾角: 53.150°
近地点辐角 232.240°
升交点赤经 77.557°
平近点角 278.143°
近地点: 130.016km
远地点: 136.778km
周期: 87.153分钟
每日圈数: 16.522587
Detailed Information
固有亮度:
5
最大亮度:
2.5
卫星平台:
Starlink V1.0
覆盖范围:
全球
运营商:
太空探索技术公司
运营商所在国:
美国
制造商(研发单位):
太空探索技术公司
制造商所在国:
美国
使用方式:
暂无
Satellite Introduction
Starlink 计划是 SpaceX 推出的全球卫星互联网项目,通过发射低轨道卫星,为全球尤其是偏远地区提供高速、低延迟的互联网服务。自 2019 年起,Starlink 已部署数千颗卫星,旨在缩小全球数字鸿沟,推动互联网普及。该项目还为军事、航空等行业提供通信支持,带来广泛经济效益。